START_TIME,STEP,MOV.,A46,t_acc.,A13,t_acc.,M47,t_acc.,A17,t_acc.,A28,t_acc.,M38,t_acc.
1989-08-24T00:00:26.440 ,5,0,,0,0.,4.8,0.,4.8,,0,0.,4.8,0.,4.8
1989-08-24T00:00:31.240 ,5,0,,0,0.,4.8,0.,4.8,,0,0.,4.8,0.,4.8
1989-08-24T00:00:36.040 ,5,0,,0,0.,4.8,0.,4.8,,0,0.,4.8,0.,4.8
1989-08-24T00:00:40.840 ,5,0,,0,0.,4.8,0.,4.8,,0,0.,4.8,0.,4.8
1989-08-24T00:00:45.640 ,5,0,,0,0.,4.8,0.,4.8,,0,0.,4.8,0.,4.8
1989-08-24T00:00:50.440 ,4,0,,0,0.,4.8,0.,4.8,,0,0.,4.8,0.,4.8
1989-08-24T00:00:55.240 ,4,0,,0,0.,4.8,0.,4.8,,0,0.,4.8,0.,4.8
1989-08-24T00:01:00.040 ,4,0,,0,1.,4.8,0.,4.8,,0,0.,4.8,0.,4.8
1989-08-24T00:01:04.840 ,4,0,,0,0.,4.8,0.,4.8,,0,0.,4.8,0.,4.8
1989-08-24T00:01:09.640 ,4,0,,0,0.,4.8,0.,4.8,,0,0.,4.8,0.,4.8
1989-08-24T00:01:14.440 ,4,0,,0,0.,4.8,0.,4.8,,0,0.,4.8,0.,4.8
1989-08-24T00:01:19.240 ,4,0,,0,0.,4.8,0.,4.8,,0,0.,4.8,0.,4.8
1989-08-24T00:01:24.040 ,4,0,,0,0.,4.8,0.,4.8,,0,0.,4.8,0.,4.8
1989-08-24T00:01:28.840 ,4,0,,0,0.,4.8,0.,4.8,,0,0.,4.8,0.,4.8
1989-08-24T00:01:33.640 ,4,0,,0,0.,4.8,0.,4.8,,0,0.,4.8,0.,4.8
1989-08-24T00:01:38.440 ,3,0,,0,0.,4.8,0.,4.8,,0,0.,4.8,0.,4.8
1989-08-24T00:01:43.240 ,3,0,,0,0.,4.8,0.,4.8,,0,0.,4.8,0.,4.8
1989-08-24T00:01:48.040 ,3,0,,0,1.,4.8,0.,4.8,,0,0.,4.8,0.,4.8
1989-08-24T00:01:52.840 ,3,0,,0,0.,4.8,0.,4.8,,0,0.,4.8,0.,4.8
1989-08-24T00:01:57.640 ,3,0,,0,0.,4.8,0.,4.8,,0,0.,4.8,0.,4.8
1989-08-24T00:02:02.440 ,3,0,,0,0.,4.8,0.,4.8,,0,0.,4.8,0.,4.8
1989-08-24T00:02:07.240 ,3,0,,0,0.,4.8,0.,4.8,,0,0.,4.8,0.,4.8
1989-08-24T00:02:12.040 ,3,0,,0,0.,4.8,0.,4.8,,0,0.,4.8,0.,4.8
1989-08-24T00:02:16.840 ,3,0,,0,0.,4.8,0.,4.8,,0,0.,4.8,0.,4.8
1989-08-24T00:02:21.640 ,3,0,,0,0.,4.8,0.,4.8,,0,0.,4.8,0.,4.8
1989-08-24T00:02:26.440 ,2,0,,0,0.,4.8,0.,4.8,,0,0.,4.8,0.,4.8
1989-08-24T00:02:31.240 ,2,0,,0,0.,4.8,0.,4.8,,0,0.,4.8,0.,4.8
1989-08-24T00:02:36.040 ,2,0,,0,1.,4.8,0.,4.8,,0,0.,4.8,0.,4.8
1989-08-24T00:02:40.840 ,2,0,,0,0.,4.8,0.,4.8,,0,0.,4.8,0.,4.8
1989-08-24T00:02:45.640 ,2,0,,0,0.,4.8,0.,4.8,,0,0.,4.8,0.,4.8
1989-08-24T00:02:50.440 ,2,0,,0,0.,4.8,0.,4.8,,0,0.,4.8,0.,4.8
1989-08-24T00:02:55.240 ,2,0,,0,0.,4.8,0.,4.8,,0,0.,4.8,0.,4.8
1989-08-24T00:03:00.040 ,2,0,,0,0.,4.8,0.,4.8,,0,0.,4.8,0.,4.8
1989-08-24T00:03:04.840 ,2,0,,0,0.,4.8,0.,4.8,,0,0.,4.8,0.,4.8
1989-08-24T00:03:09.640 ,2,0,,0,0.,4.8,0.,4.8,,0,0.,4.8,0.,4.8
1989-08-24T00:03:14.440 ,1,0,,0,0.,4.8,0.,4.8,,0,0.,4.8,0.,4.8
1989-08-24T00:03:19.240 ,1,0,,0,0.,4.8,0.,4.8,,0,0.,4.8,0.,4.8
1989-08-24T00:03:24.040 ,1,0,,0,1.,4.8,0.,4.8,,0,0.,4.8,0.,4.8
1989-08-24T00:03:28.840 ,1,0,,0,0.,4.8,0.,4.8,,0,0.,4.8,0.,4.8
1989-08-24T00:03:33.640 ,1,0,,0,0.,4.8,0.,4.8,,0,0.,4.8,0.,4.8
1989-08-24T00:03:38.440 ,1,0,,0,0.,4.8,0.,4.8,,0,0.,4.8,0.,4.8
1989-08-24T00:03:43.240 ,1,0,,0,0.,4.8,0.,4.8,,0,0.,4.8,0.,4.8
1989-08-24T00:03:48.040 ,1,0,,0,0.,4.8,0.,4.8,,0,0.,4.8,0.,4.8
1989-08-24T00:03:52.840 ,1,0,,0,0.,4.8,0.,4.8,,0,0.,4.8,0.,4.8
1989-08-24T00:03:57.640 ,1,0,,0,0.,4.8,0.,4.8,,0,0.,4.8,0.,4.8
1989-08-24T00:04:02.440 ,0,0,,0,0.,4.8,0.,4.8,,0,0.,4.8,0.,4.8
1989-08-24T00:04:07.240 ,0,0,,0,0.,4.8,0.,4.8,,0,0.,4.8,0.,4.8
1989-08-24T00:04:12.040 ,0,0,,0,1.,4.8,0.,4.8,,0,0.,4.8,0.,4.8
1989-08-24T00:04:16.840 ,0,0,,0,0.,4.8,0.,4.8,,0,0.,4.8,0.,4.8
1989-08-24T00:04:21.640 ,0,0,,0,0.,4.8,0.,4.8,,0,0.,4.8,0.,4.8
1989-08-24T00:04:26.440 ,0,0,,0,0.,4.8,0.,4.8,,0,0.,4.8,0.,4.8
1989-08-24T00:04:31.240 ,0,0,,0,0.,4.8,0.,4.8,,0,0.,4.8,0.,4.8
1989-08-24T00:04:36.040 ,0,0,,0,0.,4.8,0.,4.8,,0,0.,4.8,0.,4.8
1989-08-24T00:04:40.840 ,0,0,,0,0.,4.8,0.,4.8,,0,0.,4.8,0.,4.8
1989-08-24T00:04:45.640 ,0,0,,0,0.,4.8,0.,4.8,,0,0.,4.8,0.,4.8
1989-08-24T00:04:50.440 ,0,0,,0,0.,4.8,0.,4.8,,0,0.,4.8,0.,4.8
1989-08-24T00:04:55.240 ,0,0,,0,0.,4.8,0.,4.8,,0,0.,4.8,0.,4.8
1989-08-24T00:05:00.040 ,0,0,,0,1.,4.8,0.,4.8,,0,0.,4.8,0.,4.8
1989-08-24T00:05:04.840 ,0,0,,0,0.,4.8,0.,4.8,,0,0.,4.8,0.,4.8
1989-08-24T00:05:09.640 ,0,0,,0,0.,4.8,0.,4.8,,0,0.,4.8,0.,4.8
1989-08-24T00:05:14.440 ,0,0,,0,0.,4.8,0.,4.8,,0,0.,4.8,0.,4.8
1989-08-24T00:05:19.240 ,0,0,,0,0.,4.8,0.,4.8,,0,0.,4.8,0.,4.8
1989-08-24T00:05:24.040 ,0,0,,0,0.,4.8,0.,4.8,,0,0.,4.8,0.,4.8
1989-08-24T00:05:28.840 ,0,0,,0,0.,4.8,0.,4.8,,0,0.,4.8,0.,4.8
1989-08-24T00:05:33.640 ,0,0,,0,0.,4.8,0.,4.8,,0,0.,4.8,0.,4.8
1989-08-24T00:05:38.440 ,1,0,,0,0.,4.8,0.,4.8,,0,0.,4.8,0.,4.8
1989-08-24T00:05:43.240 ,1,0,,0,0.,4.8,0.,4.8,,0,0.,4.8,0.,4.8
1989-08-24T00:05:48.040 ,1,0,,0,1.,4.8,0.,4.8,,0,0.,4.8,0.,4.8
1989-08-24T00:05:52.840 ,1,0,,0,0.,4.8,0.,4.8,,0,0.,4.8,0.,4.8
1989-08-24T00:05:57.640 ,1,0,,0,0.,4.8,0.,4.8,,0,0.,4.8,0.,4.8
1989-08-24T00:06:02.440 ,1,0,,0,0.,4.8,0.,4.8,,0,0.,4.8,0.,4.8
1989-08-24T00:06:07.240 ,1,0,,0,0.,4.8,0.,4.8,,0,0.,4.8,0.,4.8
1989-08-24T00:06:12.040 ,1,0,,0,0.,4.8,0.,4.8,,0,0.,4.8,0.,4.8
1989-08-24T00:06:16.840 ,1,0,,0,0.,4.8,0.,4.8,,0,0.,4.8,0.,4.8
1989-08-24T00:06:21.640 ,1,0,,0,0.,4.8,0.,4.8,,0,0.,4.8,0.,4.8
1989-08-24T00:06:26.440 ,2,0,,0,0.,4.8,0.,4.8,,0,0.,4.8,0.,4.8
1989-08-24T00:06:31.240 ,2,0,,0,0.,4.8,0.,4.8,,0,0.,4.8,0.,4.8
1989-08-24T00:06:36.040 ,2,0,,0,1.,4.8,0.,4.8,,0,0.,4.8,0.,4.8
1989-08-24T00:06:40.840 ,2,0,,0,0.,4.8,0.,4.8,,0,0.,4.8,0.,4.8
1989-08-24T00:06:45.640 ,2,0,,0,0.,4.8,0.,4.8,,0,0.,4.8,0.,4.8
1989-08-24T00:06:50.440 ,2,0,,0,0.,4.8,0.,4.8,,0,0.,4.8,0.,4.8
1989-08-24T00:06:55.240 ,2,0,,0,0.,4.8,0.,4.8,,0,0.,4.8,0.,4.8
1989-08-24T00:07:00.040 ,2,0,,0,0.,4.8,0.,4.8,,0,0.,4.8,0.,4.8
1989-08-24T00:07:04.840 ,2,0,,0,0.,4.8,0.,4.8,,0,0.,4.8,0.,4.8
1989-08-24T00:07:09.640 ,2,0,,0,0.,4.8,0.,4.8,,0,0.,4.8,0.,4.8
1989-08-24T00:07:14.440 ,3,0,,0,0.,4.8,0.,4.8,,0,0.,4.8,0.,4.8
1989-08-24T00:07:19.240 ,3,0,,0,0.,4.8,0.,4.8,,0,0.,4.8,0.,4.8
1989-08-24T00:07:24.040 ,3,0,,0,1.,4.8,0.,4.8,,0,0.,4.8,0.,4.8
1989-08-24T00:07:28.840 ,3,0,,0,0.,4.8,0.,4.8,,0,0.,4.8,0.,4.8
1989-08-24T00:07:33.640 ,3,0,,0,0.,4.8,0.,4.8,,0,0.,4.8,0.,4.8
1989-08-24T00:07:38.440 ,3,0,,0,0.,4.8,0.,4.8,,0,0.,4.8,0.,4.8
1989-08-24T00:07:43.240 ,3,0,,0,0.,4.8,0.,4.8,,0,0.,4.8,0.,4.8
1989-08-24T00:07:48.040 ,3,0,,0,0.,4.8,0.,4.8,,0,0.,4.8,0.,4.8
1989-08-24T00:07:52.840 ,3,0,,0,0.,4.8,0.,4.8,,0,0.,4.8,0.,4.8
1989-08-24T00:07:57.640 ,3,0,,0,0.,4.8,0.,4.8,,0,0.,4.8,0.,4.8
1989-08-24T00:08:02.440 ,4,0,,0,0.,4.8,0.,4.8,,0,0.,4.8,0.,4.8
1989-08-24T00:08:07.240 ,4,0,,0,0.,4.8,0.,4.8,,0,0.,4.8,0.,4.8
1989-08-24T00:08:12.040 ,4,0,,0,1.,4.8,0.,4.8,,0,0.,4.8,0.,4.8
1989-08-24T00:08:16.840 ,4,0,,0,0.,4.8,0.,4.8,,0,0.,4.8,0.,4.8
1989-08-24T00:08:21.640 ,4,0,,0,0.,4.8,0.,4.8,,0,0.,4.8,0.,4.8
1989-08-24T00:08:26.440 ,4,0,,0,0.,4.8,0.,4.8,,0,0.,4.8,0.,4.8
1989-08-24T00:08:31.240 ,4,0,,0,0.,4.8,0.,4.8,,0,0.,4.8,0.,4.8
1989-08-24T00:08:36.040 ,4,0,,0,0.,4.8,0.,4.8,,0,0.,4.8,0.,4.8
1989-08-24T00:08:40.840 ,4,0,,0,0.,4.8,0.,4.8,,0,0.,4.8,0.,4.8
1989-08-24T00:08:45.640 ,4,0,,0,0.,4.8,0.,4.8,,0,0.,4.8,0.,4.8
1989-08-24T00:08:50.440 ,5,0,,0,0.,4.8,0.,4.8,,0,0.,4.8,0.,4.8
1989-08-24T00:08:55.240 ,5,0,,0,0.,4.8,0.,4.8,,0,0.,4.8,0.,4.8
1989-08-24T00:09:00.040 ,5,0,,0,1.,4.8,0.,4.8,,0,0.,4.8,0.,4.8
1989-08-24T00:09:04.840 ,5,0,,0,0.,4.8,0.,4.8,,0,0.,4.8,0.,4.8
1989-08-24T00:09:09.640 ,5,0,,0,0.,4.8,0.,4.8,,0,0.,4.8,0.,4.8
1989-08-24T00:09:14.440 ,5,0,,0,0.,4.8,0.,4.8,,0,0.,4.8,0.,4.8
1989-08-24T00:09:19.240 ,5,0,,0,0.,4.8,0.,4.8,,0,0.,4.8,0.,4.8
1989-08-24T00:09:24.040 ,5,0,,0,0.,4.8,0.,4.8,,0,0.,4.8,0.,4.8
1989-08-24T00:09:28.840 ,5,0,,0,0.,4.8,0.,4.8,,0,0.,4.8,0.,4.8
1989-08-24T00:09:33.640 ,5,0,,0,0.,4.8,0.,4.8,,0,0.,4.8,0.,4.8
1989-08-24T00:09:38.440 ,6,0,,0,0.,4.8,0.,4.8,,0,0.,4.8,0.,4.8
1989-08-24T00:09:43.240 ,6,0,,0,0.,4.8,0.,4.8,,0,0.,4.8,0.,4.8
1989-08-24T00:09:48.040 ,6,0,,0,1.,4.8,0.,4.8,,0,0.,4.8,0.,4.8
1989-08-24T00:09:52.840 ,6,0,,0,0.,4.8,0.,4.8,,0,0.,4.8,0.,4.8
1989-08-24T00:09:57.640 ,6,0,,0,0.,4.8,0.,4.8,,0,0.,4.8,0.,4.8
1989-08-24T00:10:02.440 ,6,0,,0,0.,4.8,0.,4.8,,0,0.,4.8,0.,4.8
1989-08-24T00:10:07.240 ,6,0,,0,0.,4.8,0.,4.8,,0,0.,4.8,0.,4.8
1989-08-24T00:10:12.040 ,6,0,,0,0.,4.8,0.,4.8,,0,0.,4.8,0.,4.8
1989-08-24T00:10:16.840 ,6,0,,0,0.,4.8,0.,4.8,,0,0.,4.8,0.,4.8
1989-08-24T00:10:21.640 ,6,0,,0,0.,4.8,0.,4.8,,0,0.,4.8,0.,4.8
1989-08-24T00:10:26.440 ,7,0,,0,0.,4.8,0.,4.8,,0,0.,4.8,0.,4.8
1989-08-24T00:10:31.240 ,7,0,,0,0.,4.8,0.,4.8,,0,0.,4.8,0.,4.8
1989-08-24T00:10:36.040 ,7,0,,0,2.,4.8,0.,4.8,,0,0.,4.8,0.,4.8
1989-08-24T00:10:40.840 ,7,0,,0,4.,4.8,0.,4.8,,0,0.,4.8,0.,4.8
1989-08-24T00:10:45.640 ,7,0,,0,0.,4.8,0.,4.8,,0,0.,4.8,0.,4.8
1989-08-24T00:10:50.440 ,7,0,,0,2.,4.8,0.,4.8,,0,0.,4.8,0.,4.8
1989-08-24T00:10:55.240 ,7,0,,0,5.,4.8,0.,4.8,,0,0.,4.8,0.,4.8
1989-08-24T00:11:00.040 ,7,0,,0,6.,4.8,0.,4.8,,0,0.,4.8,0.,4.8
1989-08-24T00:11:04.840 ,7,0,,0,0.,4.8,0.,4.8,,0,0.,4.8,0.,4.8
1989-08-24T00:11:09.640 ,7,0,,0,0.,4.8,0.,4.8,,0,0.,4.8,0.,4.8
1989-08-24T00:11:14.440 ,7,0,,0,0.,4.8,0.,4.8,,0,0.,4.8,0.,4.8
1989-08-24T00:11:19.240 ,7,0,,0,0.,4.8,0.,4.8,,0,0.,4.8,0.,4.8
1989-08-24T00:11:24.040 ,7,0,,0,1.,4.8,0.,4.8,,0,0.,4.8,0.,4.8
1989-08-24T00:11:28.840 ,7,0,,0,3.,4.8,0.,4.8,,0,0.,4.8,0.,4.8
1989-08-24T00:11:33.640 ,7,0,,0,9.,4.8,0.,4.8,,0,0.,4.8,0.,4.8
1989-08-24T00:11:38.440 ,7,0,,0,5.,4.8,0.,4.8,,0,0.,4.8,0.,4.8
1989-08-24T00:11:43.240 ,7,0,,0,3.,4.8,0.,4.8,,0,0.,4.8,0.,4.8
1989-08-24T00:11:48.040 ,7,0,,0,2.,4.8,0.,4.8,,0,0.,4.8,0.,4.8
1989-08-24T00:11:52.840 ,7,0,,0,0.,4.8,0.,4.8,,0,0.,4.8,0.,4.8
1989-08-24T00:11:57.640 ,7,0,,0,0.,4.8,0.,4.8,,0,0.,4.8,0.,4.8
1989-08-24T00:12:02.440 ,6,0,,0,0.,4.8,0.,4.8,,0,0.,4.8,0.,4.8
1989-08-24T00:12:07.240 ,6,0,,0,0.,4.8,0.,4.8,,0,0.,4.8,0.,4.8
1989-08-24T00:12:12.040 ,6,0,,0,1.,4.8,0.,4.8,,0,0.,4.8,0.,4.8
1989-08-24T00:12:16.840 ,6,0,,0,0.,4.8,0.,4.8,,0,0.,4.8,0.,4.8
1989-08-24T00:12:21.640 ,6,0,,0,0.,4.8,0.,4.8,,0,0.,4.8,0.,4.8
1989-08-24T00:12:26.440 ,6,0,,0,0.,4.8,0.,4.8,,0,0.,4.8,0.,4.8
1989-08-24T00:12:31.240 ,6,0,,0,0.,4.8,0.,4.8,,0,0.,4.8,0.,4.8
1989-08-24T00:12:36.040 ,6,0,,0,0.,4.8,0.,4.8,,0,0.,4.8,0.,4.8
1989-08-24T00:12:40.840 ,6,0,,0,0.,4.8,0.,4.8,,0,0.,4.8,0.,4.8
1989-08-24T00:12:45.640 ,6,0,,0,0.,4.8,0.,4.8,,0,0.,4.8,0.,4.8
1989-08-24T00:12:50.440 ,5,0,,0,0.,4.8,0.,4.8,,0,0.,4.8,0.,4.8
1989-08-24T00:12:55.240 ,5,0,,0,0.,4.8,0.,4.8,,0,0.,4.8,0.,4.8
1989-08-24T00:13:00.040 ,5,0,,0,1.,4.8,0.,4.8,,0,0.,4.8,0.,4.8
1989-08-24T00:13:04.840 ,5,0,,0,0.,4.8,0.,4.8,,0,0.,4.8,0.,4.8
1989-08-24T00:13:09.640 ,5,0,,0,0.,4.8,0.,4.8,,0,0.,4.8,0.,4.8
1989-08-24T00:13:14.440 ,5,0,,0,0.,4.8,0.,4.8,,0,0.,4.8,0.,4.8
1989-08-24T00:13:19.240 ,5,0,,0,0.,4.8,0.,4.8,,0,0.,4.8,0.,4.8
1989-08-24T00:13:24.040 ,5,0,,0,0.,4.8,0.,4.8,,0,0.,4.8,0.,4.8
1989-08-24T00:13:28.840 ,5,0,,0,0.,4.8,0.,4.8,,0,0.,4.8,0.,4.8
1989-08-24T00:13:33.640 ,5,0,,0,0.,4.8,0.,4.8,,0,0.,4.8,0.,4.8
1989-08-24T00:13:38.440 ,4,0,,0,0.,4.8,0.,4.8,,0,0.,4.8,0.,4.8
1989-08-24T00:13:43.240 ,4,0,,0,0.,4.8,0.,4.8,,0,0.,4.8,0.,4.8
1989-08-24T00:13:48.040 ,4,0,,0,1.,4.8,0.,4.8,,0,0.,4.8,0.,4.8
1989-08-24T00:13:52.840 ,4,0,,0,0.,4.8,0.,4.8,,0,0.,4.8,0.,4.8
1989-08-24T00:13:57.640 ,4,0,,0,0.,4.8,0.,4.8,,0,0.,4.8,0.,4.8
1989-08-24T00:14:02.440 ,4,0,,0,0.,4.8,0.,4.8,,0,0.,4.8,0.,4.8
1989-08-24T00:14:07.240 ,4,0,,0,0.,4.8,0.,4.8,,0,0.,4.8,0.,4.8
1989-08-24T00:14:12.040 ,4,0,,0,0.,4.8,0.,4.8,,0,0.,4.8,0.,4.8
1989-08-24T00:14:16.840 ,4,0,,0,0.,4.8,0.,4.8,,0,0.,4.8,0.,4.8
1989-08-24T00:14:21.640 ,4,0,,0,0.,4.8,0.,4.8,,0,0.,4.8,0.,4.8
1989-08-24T00:14:26.440 ,3,0,,0,0.,4.8,0.,4.8,,0,0.,4.8,0.,4.8
1989-08-24T00:14:31.240 ,3,0,,0,0.,4.8,0.,4.8,,0,0.,4.8,0.,4.8
1989-08-24T00:14:36.040 ,3,0,,0,1.,4.8,0.,4.8,,0,0.,4.8,0.,4.8
1989-08-24T00:14:40.840 ,3,0,,0,0.,4.8,0.,4.8,,0,0.,4.8,0.,4.8
1989-08-24T00:14:45.640 ,3,0,,0,0.,4.8,0.,4.8,,0,0.,4.8,0.,4.8
1989-08-24T00:14:50.440 ,3,0,,0,0.,4.8,0.,4.8,,0,0.,4.8,0.,4.8
1989-08-24T00:14:55.240 ,3,0,,0,0.,4.8,0.,4.8,,0,0.,4.8,0.,4.8
1989-08-24T00:15:00.040 ,3,0,,0,0.,4.8,0.,4.8,,0,0.,4.8,0.,4.8
1989-08-24T00:15:04.840 ,3,0,,0,0.,4.8,0.,4.8,,0,0.,4.8,0.,4.8
1989-08-24T00:15:09.640 ,3,0,,0,0.,4.8,0.,4.8,,0,0.,4.8,0.,4.8
1989-08-24T00:15:14.440 ,2,0,,0,0.,4.8,0.,4.8,,0,0.,4.8,0.,4.8
1989-08-24T00:15:19.240 ,2,0,,0,0.,4.8,0.,4.8,,0,0.,4.8,0.,4.8
1989-08-24T00:15:24.040 ,2,0,,0,1.,4.8,0.,4.8,,0,0.,4.8,0.,4.8
1989-08-24T00:15:28.840 ,2,0,,0,0.,4.8,0.,4.8,,0,0.,4.8,0.,4.8
1989-08-24T00:15:33.640 ,2,0,,0,0.,4.8,0.,4.8,,0,0.,4.8,0.,4.8
1989-08-24T00:15:38.440 ,2,0,,0,0.,4.8,0.,4.8,,0,0.,4.8,0.,4.8
1989-08-24T00:15:43.240 ,2,0,,0,0.,4.8,0.,4.8,,0,0.,4.8,0.,4.8
1989-08-24T00:15:48.040 ,2,0,,0,0.,4.8,0.,4.8,,0,0.,4.8,0.,4.8
1989-08-24T00:15:52.840 ,2,0,,0,0.,4.8,0.,4.8,,0,0.,4.8,0.,4.8
1989-08-24T00:15:57.640 ,2,0,,0,0.,4.8,0.,4.8,,0,0.,4.8,0.,4.8
1989-08-24T00:16:02.440 ,1,0,,0,0.,4.8,0.,4.8,,0,0.,4.8,0.,4.8
1989-08-24T00:16:07.240 ,1,0,,0,0.,4.8,0.,4.8,,0,0.,4.8,0.,4.8
1989-08-24T00:16:12.040 ,1,0,,0,1.,4.8,0.,4.8,,0,0.,4.8,0.,4.8
1989-08-24T00:16:16.840 ,1,0,,0,0.,4.8,0.,4.8,,0,0.,4.8,0.,4.8
1989-08-24T00:16:21.640 ,1,0,,0,0.,4.8,0.,4.8,,0,0.,4.8,0.,4.8
1989-08-24T00:16:26.440 ,1,0,,0,0.,4.8,0.,4.8,,0,0.,4.8,0.,4.8
1989-08-24T00:16:31.240 ,1,0,,0,0.,4.8,0.,4.8,,0,0.,4.8,0.,4.8
1989-08-24T00:16:36.040 ,1,0,,0,0.,4.8,0.,4.8,,0,0.,4.8,0.,4.8
1989-08-24T00:16:40.840 ,1,0,,0,0.,4.8,0.,4.8,,0,0.,4.8,0.,4.8
1989-08-24T00:16:45.640 ,1,0,,0,0.,4.8,0.,4.8,,0,0.,4.8,0.,4.8
1989-08-24T00:16:50.440 ,0,0,,0,0.,4.8,0.,4.8,,0,0.,4.8,0.,4.8
1989-08-24T00:16:55.240 ,0,0,,0,0.,4.8,0.,4.8,,0,0.,4.8,0.,4.8
1989-08-24T00:17:00.040 ,0,0,,0,1.,4.8,0.,4.8,,0,0.,4.8,0.,4.8
1989-08-24T00:17:04.840 ,0,0,,0,0.,4.8,0.,4.8,,0,0.,4.8,0.,4.8
1989-08-24T00:17:09.640 ,0,0,,0,0.,4.8,0.,4.8,,0,0.,4.8,0.,4.8
1989-08-24T00:17:14.440 ,0,0,,0,0.,4.8,0.,4.8,,0,0.,4.8,0.,4.8
1989-08-24T00:17:19.240 ,0,0,,0,0.,4.8,0.,4.8,,0,0.,4.8,0.,4.8
1989-08-24T00:17:24.040 ,0,0,,0,1.,4.8,0.,4.8,,0,0.,4.8,0.,4.8
1989-08-24T00:17:28.840 ,0,0,,0,0.,4.8,0.,4.8,,0,0.,4.8,0.,4.8
1989-08-24T00:17:33.640 ,0,0,,0,0.,4.8,0.,4.8,,0,0.,4.8,0.,4.8
1989-08-24T00:17:38.440 ,0,0,,0,0.,4.8,0.,4.8,,0,0.,4.8,0.,4.8
1989-08-24T00:17:43.240 ,0,0,,0,0.,4.8,0.,4.8,,0,0.,4.8,0.,4.8
1989-08-24T00:17:48.040 ,0,0,,0,1.,4.8,0.,4.8,,0,0.,4.8,0.,4.8
1989-08-24T00:17:52.840 ,0,0,,0,0.,4.8,0.,4.8,,0,0.,4.8,0.,4.8
1989-08-24T00:17:57.640 ,0,0,,0,0.,4.8,0.,4.8,,0,0.,4.8,0.,4.8
1989-08-24T00:18:02.440 ,0,0,,0,0.,4.8,0.,4.8,,0,0.,4.8,0.,4.8
1989-08-24T00:18:07.240 ,0,0,,0,0.,4.8,0.,4.8,,0,0.,4.8,0.,4.8
1989-08-24T00:18:12.040 ,0,0,,0,1.,4.8,0.,4.8,,0,0.,4.8,0.,4.8
1989-08-24T00:18:16.840 ,0,0,,0,0.,4.8,0.,4.8,,0,0.,4.8,0.,4.8
1989-08-24T00:18:21.640 ,0,0,,0,0.,4.8,0.,4.8,,0,0.,4.8,0.,4.8
1989-08-24T00:18:26.440 ,1,0,,0,0.,4.8,0.,4.8,,0,0.,4.8,0.,4.8
1989-08-24T00:18:31.240 ,1,0,,0,0.,4.8,0.,4.8,,0,0.,4.8,0.,4.8
1989-08-24T00:18:36.040 ,1,0,,0,1.,4.8,0.,4.8,,0,0.,4.8,0.,4.8
1989-08-24T00:18:40.840 ,1,0,,0,0.,4.8,0.,4.8,,0,0.,4.8,0.,4.8
1989-08-24T00:18:45.640 ,1,0,,0,0.,4.8,0.,4.8,,0,0.,4.8,0.,4.8
1989-08-24T00:18:50.440 ,1,0,,0,0.,4.8,0.,4.8,,0,0.,4.8,0.,4.8
1989-08-24T00:18:55.240 ,1,0,,0,0.,4.8,0.,4.8,,0,0.,4.8,0.,4.8
1989-08-24T00:19:00.040 ,1,0,,0,0.,4.8,0.,4.8,,0,0.,4.8,0.,4.8
1989-08-24T00:19:04.840 ,1,0,,0,0.,4.8,0.,4.8,,0,0.,4.8,0.,4.8
1989-08-24T00:19:09.640 ,1,0,,0,0.,4.8,0.,4.8,,0,0.,4.8,0.,4.8
1989-08-24T00:19:14.440 ,2,0,,0,0.,4.8,0.,4.8,,0,0.,4.8,0.,4.8
1989-08-24T00:19:19.240 ,2,0,,0,0.,4.8,0.,4.8,,0,0.,4.8,0.,4.8
1989-08-24T00:19:24.040 ,2,0,,0,1.,4.8,0.,4.8,,0,0.,4.8,0.,4.8
1989-08-24T00:19:28.840 ,2,0,,0,0.,4.8,0.,4.8,,0,0.,4.8,0.,4.8
1989-08-24T00:19:33.640 ,2,0,,0,0.,4.8,0.,4.8,,0,0.,4.8,0.,4.8
1989-08-24T00:19:38.440 ,2,0,,0,0.,4.8,0.,4.8,,0,0.,4.8,0.,4.8
1989-08-24T00:19:43.240 ,2,0,,0,0.,4.8,0.,4.8,,0,0.,4.8,0.,4.8
1989-08-24T00:19:48.040 ,2,0,,0,0.,4.8,0.,4.8,,0,0.,4.8,0.,4.8
1989-08-24T00:19:52.840 ,2,0,,0,0.,4.8,0.,4.8,,0,0.,4.8,0.,4.8
1989-08-24T00:19:57.640 ,2,0,,0,0.,4.8,0.,4.8,,0,0.,4.8,0.,4.8
1989-08-24T00:20:02.440 ,3,0,,0,0.,4.8,0.,4.8,,0,0.,4.8,0.,4.8
1989-08-24T00:20:07.240 ,3,0,,0,0.,4.8,0.,4.8,,0,0.,4.8,0.,4.8
1989-08-24T00:20:12.040 ,3,0,,0,1.,4.8,0.,4.8,,0,0.,4.8,0.,4.8
1989-08-24T00:20:16.840 ,3,0,,0,0.,4.8,0.,4.8,,0,0.,4.8,0.,4.8
1989-08-24T00:20:21.640 ,3,0,,0,1.,4.8,0.,4.8,,0,0.,4.8,0.,4.8
1989-08-24T00:20:26.440 ,3,0,,0,0.,4.8,0.,4.8,,0,0.,4.8,0.,4.8
1989-08-24T00:20:31.240 ,3,0,,0,0.,4.8,0.,4.8,,0,0.,4.8,0.,4.8
1989-08-24T00:20:36.040 ,3,0,,0,0.,4.8,0.,4.8,,0,0.,4.8,0.,4.8
1989-08-24T00:20:40.840 ,3,0,,0,0.,4.8,0.,4.8,,0,0.,4.8,0.,4.8
1989-08-24T00:20:45.640 ,3,0,,0,0.,4.8,0.,4.8,,0,0.,4.8,0.,4.8
1989-08-24T00:20:50.440 ,4,0,,0,0.,4.8,0.,4.8,,0,0.,4.8,0.,4.8
1989-08-24T00:20:55.240 ,4,0,,0,0.,4.8,0.,4.8,,0,0.,4.8,0.,4.8
1989-08-24T00:21:00.040 ,4,0,,0,1.,4.8,0.,4.8,,0,0.,4.8,0.,4.8
1989-08-24T00:21:04.840 ,4,0,,0,0.,4.8,0.,4.8,,0,0.,4.8,0.,4.8
1989-08-24T00:21:09.640 ,4,0,,0,0.,4.8,0.,4.8,,0,0.,4.8,0.,4.8
1989-08-24T00:21:14.440 ,4,0,,0,0.,4.8,0.,4.8,,0,0.,4.8,0.,4.8
1989-08-24T00:21:19.240 ,4,0,,0,0.,4.8,0.,4.8,,0,0.,4.8,0.,4.8
1989-08-24T00:21:24.040 ,4,0,,0,0.,4.8,0.,4.8,,0,0.,4.8,0.,4.8
1989-08-24T00:21:28.840 ,4,0,,0,0.,4.8,0.,4.8,,0,0.,4.8,0.,4.8
1989-08-24T00:21:33.640 ,4,0,,0,0.,4.8,0.,4.8,,0,0.,4.8,0.,4.8
1989-08-24T00:21:38.440 ,5,0,,0,0.,4.8,0.,4.8,,0,0.,4.8,0.,4.8
1989-08-24T00:21:43.240 ,5,0,,0,0.,4.8,0.,4.8,,0,0.,4.8,0.,4.8
1989-08-24T00:21:48.040 ,5,0,,0,1.,4.8,0.,4.8,,0,0.,4.8,0.,4.8
1989-08-24T00:21:52.840 ,5,0,,0,0.,4.8,0.,4.8,,0,0.,4.8,0.,4.8
1989-08-24T00:21:57.640 ,5,0,,0,0.,4.8,0.,4.8,,0,0.,4.8,0.,4.8
1989-08-24T00:22:02.440 ,5,0,,0,0.,4.8,0.,4.8,,0,0.,4.8,0.,4.8
1989-08-24T00:22:07.240 ,5,0,,0,0.,4.8,0.,4.8,,0,0.,4.8,0.,4.8
1989-08-24T00:22:12.040 ,5,0,,0,0.,4.8,0.,4.8,,0,0.,4.8,0.,4.8
1989-08-24T00:22:16.840 ,5,0,,0,0.,4.8,0.,4.8,,0,0.,4.8,0.,4.8
1989-08-24T00:22:21.640 ,5,0,,0,0.,4.8,0.,4.8,,0,0.,4.8,0.,4.8
1989-08-24T00:22:26.440 ,6,0,,0,0.,4.8,0.,4.8,,0,0.,4.8,0.,4.8
1989-08-24T00:22:31.240 ,6,0,,0,0.,4.8,0.,4.8,,0,0.,4.8,0.,4.8
1989-08-24T00:22:36.040 ,6,0,,0,1.,4.8,0.,4.8,,0,0.,4.8,0.,4.8
1989-08-24T00:22:40.840 ,6,0,,0,0.,4.8,0.,4.8,,0,0.,4.8,0.,4.8
1989-08-24T00:22:45.640 ,6,0,,0,0.,4.8,0.,4.8,,0,0.,4.8,0.,4.8
1989-08-24T00:22:50.440 ,6,0,,0,0.,4.8,0.,4.8,,0,0.,4.8,0.,4.8
1989-08-24T00:22:55.240 ,6,0,,0,0.,4.8,0.,4.8,,0,0.,4.8,0.,4.8
1989-08-24T00:23:00.040 ,6,0,,0,0.,4.8,0.,4.8,,0,0.,4.8,0.,4.8
1989-08-24T00:23:04.840 ,6,0,,0,0.,4.8,0.,4.8,,0,0.,4.8,0.,4.8
1989-08-24T00:23:09.640 ,6,0,,0,0.,4.8,0.,4.8,,0,0.,4.8,0.,4.8
1989-08-24T00:23:14.440 ,7,0,,0,0.,4.8,0.,4.8,,0,0.,4.8,0.,4.8
1989-08-24T00:23:19.240 ,7,0,,0,0.,4.8,0.,4.8,,0,0.,4.8,0.,4.8
1989-08-24T00:23:24.040 ,7,0,,0,3.,4.8,0.,4.8,,0,0.,4.8,0.,4.8
1989-08-24T00:23:28.840 ,7,0,,0,4.,4.8,0.,4.8,,0,0.,4.8,0.,4.8
1989-08-24T00:23:33.640 ,7,0,,0,2.,4.8,0.,4.8,,0,0.,4.8,0.,4.8
1989-08-24T00:23:38.440 ,7,0,,0,4.,4.8,0.,4.8,,0,0.,4.8,0.,4.8
1989-08-24T00:23:43.240 ,7,0,,0,4.,4.8,0.,4.8,,0,0.,4.8,0.,4.8
1989-08-24T00:23:48.040 ,7,0,,0,5.,4.8,0.,4.8,,0,0.,4.8,0.,4.8
1989-08-24T00:23:52.840 ,7,0,,0,0.,4.8,0.,4.8,,0,0.,4.8,0.,4.8
1989-08-24T00:23:57.640 ,7,0,,0,0.,4.8,0.,4.8,,0,0.,4.8,0.,4.8
1989-08-24T00:24:02.440 ,7,0,,0,0.,4.8,0.,4.8,,0,0.,4.8,0.,4.8
1989-08-24T00:24:07.240 ,7,0,,0,0.,4.8,0.,4.8,,0,0.,4.8,0.,4.8
1989-08-24T00:24:12.040 ,7,0,,0,2.,4.8,0.,4.8,,0,0.,4.8,0.,4.8
1989-08-24T00:24:16.840 ,7,0,,0,2.,4.8,0.,4.8,,0,0.,4.8,0.,4.8
1989-08-24T00:24:21.640 ,7,0,,0,0.,4.8,0.,4.8,,0,0.,4.8,0.,4.8
1989-08-24T00:24:26.440 ,7,0,,0,6.,4.8,0.,4.8,,0,0.,4.8,0.,4.8
1989-08-24T00:24:31.240 ,7,0,,0,6.,4.8,0.,4.8,,0,0.,4.8,0.,4.8
1989-08-24T00:24:36.040 ,7,0,,0,3.,4.8,0.,4.8,,0,0.,4.8,0.,4.8
1989-08-24T00:24:40.840 ,7,0,,0,0.,4.8,0.,4.8,,0,0.,4.8,0.,4.8
1989-08-24T00:24:45.640 ,7,0,,0,0.,4.8,0.,4.8,,0,0.,4.8,0.,4.8
1989-08-24T00:24:50.440 ,6,0,,0,0.,4.8,0.,4.8,,0,0.,4.8,0.,4.8
1989-08-24T00:24:55.240 ,6,0,,0,0.,4.8,0.,4.8,,0,0.,4.8,0.,4.8
1989-08-24T00:25:00.040 ,6,0,,0,1.,4.8,0.,4.8,,0,0.,4.8,0.,4.8
1989-08-24T00:25:04.840 ,6,0,,0,0.,4.8,0.,4.8,,0,0.,4.8,0.,4.8
1989-08-24T00:25:09.640 ,6,0,,0,0.,4.8,0.,4.8,,0,0.,4.8,0.,4.8
1989-08-24T00:25:14.440 ,6,0,,0,0.,4.8,0.,4.8,,0,0.,4.8,0.,4.8
1989-08-24T00:25:19.240 ,6,0,,0,0.,4.8,0.,4.8,,0,0.,4.8,0.,4.8
1989-08-24T00:25:24.040 ,6,0,,0,0.,4.8,0.,4.8,,0,0.,4.8,0.,4.8
1989-08-24T00:25:28.840 ,6,0,,0,0.,4.8,0.,4.8,,0,0.,4.8,0.,4.8
1989-08-24T00:25:33.640 ,6,0,,0,0.,4.8,0.,4.8,,0,0.,4.8,0.,4.8
1989-08-24T00:25:38.440 ,5,0,,0,0.,4.8,0.,4.8,,0,0.,4.8,0.,4.8
1989-08-24T00:25:43.240 ,5,0,,0,0.,4.8,0.,4.8,,0,0.,4.8,0.,4.8
1989-08-24T00:25:48.040 ,5,0,,0,1.,4.8,0.,4.8,,0,0.,4.8,0.,4.8
1989-08-24T00:25:52.840 ,5,0,,0,0.,4.8,0.,4.8,,0,0.,4.8,0.,4.8
1989-08-24T00:25:57.640 ,5,0,,0,0.,4.8,0.,4.8,,0,0.,4.8,0.,4.8
1989-08-24T00:26:02.440 ,5,0,,0,0.,4.8,0.,4.8,,0,0.,4.8,0.,4.8
1989-08-24T00:26:07.240 ,5,0,,0,0.,4.8,0.,4.8,,0,0.,4.8,0.,4.8
1989-08-24T00:26:12.040 ,5,0,,0,0.,4.8,0.,4.8,,0,0.,4.8,0.,4.8
1989-08-24T00:26:16.840 ,5,0,,0,0.,4.8,0.,4.8,,0,0.,4.8,0.,4.8
1989-08-24T00:26:21.640 ,5,0,,0,0.,4.8,0.,4.8,,0,0.,4.8,0.,4.8
1989-08-24T00:26:26.440 ,4,0,,0,0.,4.8,0.,4.8,,0,0.,4.8,0.,4.8
1989-08-24T00:26:31.240 ,4,0,,0,0.,4.8,0.,4.8,,0,0.,4.8,0.,4.8
1989-08-24T00:26:36.040 ,4,0,,0,1.,4.8,0.,4.8,,0,0.,4.8,0.,4.8
1989-08-24T00:26:40.840 ,4,0,,0,0.,4.8,0.,4.8,,0,0.,4.8,0.,4.8
1989-08-24T00:26:45.640 ,4,0,,0,0.,4.8,0.,4.8,,0,0.,4.8,0.,4.8
1989-08-24T00:26:50.440 ,4,0,,0,0.,4.8,0.,4.8,,0,0.,4.8,0.,4.8
1989-08-24T00:26:55.240 ,4,0,,0,0.,4.8,0.,4.8,,0,0.,4.8,0.,4.8
1989-08-24T00:27:00.040 ,4,0,,0,0.,4.8,0.,4.8,,0,0.,4.8,0.,4.8
1989-08-24T00:27:04.840 ,4,0,,0,0.,4.8,0.,4.8,,0,0.,4.8,0.,4.8
1989-08-24T00:27:09.640 ,4,0,,0,0.,4.8,0.,4.8,,0,0.,4.8,0.,4.8
1989-08-24T00:27:14.440 ,3,0,,0,0.,4.8,0.,4.8,,0,0.,4.8,0.,4.8
1989-08-24T00:27:19.240 ,3,0,,0,0.,4.8,0.,4.8,,0,0.,4.8,0.,4.8
1989-08-24T00:27:24.040 ,3,0,,0,1.,4.8,0.,4.8,,0,0.,4.8,0.,4.8
1989-08-24T00:27:28.840 ,3,0,,0,0.,4.8,0.,4.8,,0,0.,4.8,0.,4.8
1989-08-24T00:27:33.640 ,3,0,,0,0.,4.8,0.,4.8,,0,0.,4.8,0.,4.8
1989-08-24T00:27:38.440 ,3,0,,0,0.,4.8,0.,4.8,,0,0.,4.8,0.,4.8
1989-08-24T00:27:43.240 ,3,0,,0,0.,4.8,0.,4.8,,0,0.,4.8,0.,4.8
1989-08-24T00:27:48.040 ,3,0,,0,0.,4.8,0.,4.8,,0,0.,4.8,0.,4.8
1989-08-24T00:27:52.840 ,3,0,,0,0.,4.8,0.,4.8,,0,0.,4.8,0.,4.8
1989-08-24T00:27:57.640 ,3,0,,0,0.,4.8,0.,4.8,,0,0.,4.8,0.,4.8
1989-08-24T00:28:02.440 ,2,0,,0,0.,4.8,0.,4.8,,0,0.,4.8,0.,4.8
1989-08-24T00:28:07.240 ,2,0,,0,0.,4.8,0.,4.8,,0,0.,4.8,0.,4.8
1989-08-24T00:28:12.040 ,2,0,,0,1.,4.8,0.,4.8,,0,0.,4.8,0.,4.8
1989-08-24T00:28:16.840 ,2,0,,0,0.,4.8,0.,4.8,,0,0.,4.8,0.,4.8
1989-08-24T00:28:21.640 ,2,0,,0,0.,4.8,0.,4.8,,0,0.,4.8,0.,4.8
1989-08-24T00:28:26.440 ,2,0,,0,0.,4.8,0.,4.8,,0,0.,4.8,0.,4.8
1989-08-24T00:28:31.240 ,2,0,,0,0.,4.8,0.,4.8,,0,0.,4.8,0.,4.8
1989-08-24T00:28:36.040 ,2,0,,0,0.,4.8,0.,4.8,,0,0.,4.8,0.,4.8
1989-08-24T00:28:40.840 ,2,0,,0,0.,4.8,0.,4.8,,0,0.,4.8,0.,4.8
1989-08-24T00:28:45.640 ,2,0,,0,0.,4.8,0.,4.8,,0,0.,4.8,0.,4.8
1989-08-24T00:28:50.440 ,1,0,,0,0.,4.8,0.,4.8,,0,0.,4.8,0.,4.8
1989-08-24T00:28:55.240 ,1,0,,0,0.,4.8,0.,4.8,,0,0.,4.8,0.,4.8
1989-08-24T00:29:00.040 ,1,0,,0,1.,4.8,0.,4.8,,0,0.,4.8,0.,4.8
1989-08-24T00:29:04.840 ,1,0,,0,0.,4.8,0.,4.8,,0,0.,4.8,0.,4.8
1989-08-24T00:29:09.640 ,1,0,,0,0.,4.8,0.,4.8,,0,0.,4.8,0.,4.8
1989-08-24T00:29:14.440 ,1,0,,0,0.,4.8,0.,4.8,,0,0.,4.8,0.,4.8
1989-08-24T00:29:19.240 ,1,0,,0,1.,4.8,0.,4.8,,0,0.,4.8,0.,4.8
1989-08-24T00:29:24.040 ,1,0,,0,0.,4.8,0.,4.8,,0,0.,4.8,0.,4.8
1989-08-24T00:29:28.840 ,1,0,,0,0.,4.8,0.,4.8,,0,0.,4.8,0.,4.8
1989-08-24T00:29:33.640 ,1,0,,0,0.,4.8,0.,4.8,,0,0.,4.8,0.,4.8
1989-08-24T00:29:38.440 ,0,0,,0,0.,4.8,0.,4.8,,0,0.,4.8,0.,4.8
1989-08-24T00:29:43.240 ,0,0,,0,0.,4.8,0.,4.8,,0,0.,4.8,0.,4.8
1989-08-24T00:29:48.040 ,0,0,,0,1.,4.8,0.,4.8,,0,0.,4.8,0.,4.8
1989-08-24T00:29:52.840 ,0,0,,0,0.,4.8,0.,4.8,,0,0.,4.8,0.,4.8
1989-08-24T00:29:57.640 ,0,0,,0,0.,4.8,0.,4.8,,0,0.,4.8,0.,4.8
1989-08-24T00:30:02.440 ,0,0,,0,0.,4.8,0.,4.8,,0,0.,4.8,0.,4.8
1989-08-24T00:30:07.240 ,0,0,,0,0.,4.8,0.,4.8,,0,0.,4.8,0.,4.8
1989-08-24T00:30:12.040 ,0,0,,0,0.,4.8,0.,4.8,,0,0.,4.8,0.,4.8